Temp
58 57 57 57 57 58 58 58 58 58 58 57 58 58 58 59 59 59 58 58 58 57 57 56 56 56 55 56 56 56 56 56 56 56 55 55 55 55 55 55 55 54 54 54 54 54 54 54 54 53 52 52 52 52 52 51 51 51 51 51 51 51 50 50 50 50 50 49 49
57 57 57 57 57 57 58 58 58 58 58 58 58 59 59 59 59 59 58 58 57 57 56 55 55 55 55 55 56 56 56 56 55 55 55 55 55 54 54 54 54 54 54 54 54 54 54 54 53 52 52 52 52 52 52 51 51 51 51 51 51 50 50 49 50 50 49 49 49
57 57 57 57 57 57 58 58 58 58 58 58 59 59 60 60 59 58 58 57 57 56 55 54 54 54 55 55 56 56 56 55 55 55 55 54 54 54 54 54 54 54 54 54 53 53 53 54 53 52 52 51 52 52 51 51 51 50 50 50 50 50 49 49 49 49 49 49 49
57 57 57 57 57 58 58 58 59 58 58 58 59 60 60 59 58 58 57 57 56 55 54 53 53 54 54 55 55 55 55 55 55 55 54 54 54 54 54 53 53 53 53 53 52 52 53 53 52 52 52 52 52 51 51 50 50 50 50 50 49 49 49 49 49 49 49 48 48
57 58 58 58 58 59 59 60 59 58 58 58 59 59 58 58 57 56 56 55 55 54 53 53 53 54 54 55 55 55 55 55 54 54 54 54 53 53 53 53 53 53 52 52 52 51 52 52 52 51 51 51 51 51 50 50 50 49 49 49 49 49 49 49 49 49 48 48 48
58 59 59 59 59 60 60 59 58 58 58 59 58 58 57 56 56 56 55 54 54 53 53 53 53 54 54 55 55 55 54 54 54 54 54 53 53 53 53 53 52 52 52 51 51 51 51 52 51 51 51 51 50 50 50 49 49 49 49 49 49 49 49 48 48 48 48 47 48
59 59 59 59 59 59 59 58 58 59 59 59 58 57 56 56 56 55 55 53 53 53 53 53 54 54 54 54 54 54 54 54 54 54 53 53 53 52 52 52 52 52 51 51 51 51 51 51 51 50 50 50 50 49 49 48 48 48 48 49 49 49 48 48 48 48 47 47 47
59 59 59 59 59 58 58 58 59 59 59 58 57 57 56 56 55 54 53 53 52 52 52 53 53 54 54 54 54 53 53 53 53 53 53 53 52 52 52 52 51 51 51 51 51 51 51 51 50 50 50 49 49 49 49 48 47 47 48 48 48 48 48 48 48 47 47 46 46
58 58 58 58 58 58 58 58 59 59 58 58 57 56 56 55 54 53 52 52 52 52 52 53 53 54 54 53 53 53 53 53 53 53 53 52 52 52 51 51 51 51 50 50 50 50 50 50 50 50 49 49 49 49 48 47 47 47 47 48 48 48 48 48 48 47 47 46 46
56 56 57 57 57 57 58 58 58 58 58 57 56 56 55 54 53 53 52 52 52 52 52 53 53 53 53 53 53 52 52 52 52 52 52 52 52 51 51 51 51 50 50 50 50 50 50 50 50 49 49 49 49 48 47 47 46 46 47 47 47 47 47 48 48 47 47 46 46
55 56 57 57 57 57 57 57 57 57 56 55 55 54 54 53 53 52 52 52 52 52 52 52 53 53 53 52 52 52 52 52 52 52 52 51 51 51 51 50 50 50 50 50 50 50 49 49 49 49 48 49 48 48 47 47 46 46 47 47 47 46 46 47 47 47 47 46 46
55 56 57 57 57 57 57 56 55 55 54 54 53 53 53 52 52 52 52 52 52 52 52 52 53 53 52 52 52 52 52 52 52 51 51 50 50 50 50 50 50 50 49 49 49 49 49 49 48 48 48 48 49 48 48 47 47 46 46 47 46 46 46 47 47 47 47 46 45
56 56 56 57 57 56 56 55 54 53 53 53 52 52 52 52 52 52 52 52 52 52 52 52 52 52 52 51 51 51 51 51 51 51 50 50 50 50 49 49 49 49 49 48 48 48 48 48 48 47 47 48 48 48 48 47 47 46 46 46 46 46 46 46 46 46 46 45 45
56 56 56 56 56 55 55 54 53 52 52 52 52 52 51 51 52 52 52 52 51 51 51 52 52 52 51 51 51 51 51 51 51 50 50 50 49 49 49 49 49 49 48 48 48 48 48 48 47 47 47 47 47 48 47 47 47 47 46 46 46 46 46 46 46 46 45 44 44
56 56 56 55 55 54 54 53 52 52 51 51 51 51 51 51 52 52 52 51 51 51 51 51 51 51 51 51 51 51 50 51 50 50 49 49 49 49 49 49 48 48 48 48 48 47 47 47 47 47 47 47 47 47 47 47 47 47 46 46 46 46 46 46 46 45 45 44 44
56 55 55 55 54 54 53 53 52 52 51 51 51 51 51 51 51 51 51 51 51 51 51 50 50 50 50 50 50 50 50 50 50 50 49 49 49 49 49 48 48 48 48 48 48 47 47 47 47 47 47 46 47 47 47 47 47 47 47 46 46 46 46 46 45 45 45 44 44
55 55 55 55 54 53 53 52 52 51 51 50 50 51 51 51 51 51 51 51 51 50 50 50 49 49 49 49 49 50 50 50 49 49 49 49 49 48 48 48 47 47 47 47 47 47 47 47 47 47 47 46 46 47 47 47 47 47 47 47 46 46 46 46 45 45 45 44 44
55 55 54 54 53 53 52 52 51 51 50 50 50 50 50 51 51 51 51 51 50 50 49 49 49 49 49 49 49 49 49 49 49 49 49 49 48 48 48 47 47 47 47 47 47 47 47 47 47 47 47 47 47 47 47 47 47 47 47 47 46 46 46 46 45 45 45 44 44
54 54 54 54 53 52 51 51 50 50 50 50 50 50 50 50 50 50 50 50 50 49 49 49 49 49 49 49 49 49 49 49 49 48 48 48 48 48 47 47 46 46 46 46 47 47 47 47 47 47 47 47 47 47 47 47 47 47 47 47 46 46 46 46 45 45 45 44 44
54 54 53 53 52 51 50 50 50 50 50 50 50 50 50 50 50 50 49 49 49 49 49 48 48 48 48 48 48 48 48 48 48 48 47 47 47 47 47 46 46 46 46 46 46 47 47 47 47 47 47 47 47 47 47 47 47 47 47 47 46 46 46 45 45 45 44 44 44
54 53 53 52 51 50 50 50 50 50 49 49 49 49 49 50 50 49 49 49 49 49 49 48 48 48 48 48 48 48 47 48 47 47 47 47 46 46 46 46 46 46 46 46 46 46 47 47 47 47 47 47 47 47 47 47 47 47 47 47 47 46 46 45 45 44 44 44 44
52 52 51 51 50 50 49 49 49 49 49 49 49 49 49 49 49 49 48 49 49 48 48 48 48 48 48 47 47 47 47 47 47 47 46 46 46 45 45 45 45 45 46 46 46 46 46 46 47 47 47 47 47 47 47 47 46 46 46 46 46 46 46 45 45 45 44 44 44
51 51 50 50 49 49 49 49 49 49 49 49 49 49 49 49 48 48 48 48 48 48 48 48 48 48 47 47 47 46 46 46 46 46 46 45 45 45 45 45 45 45 45 46 46 46 46 46 47 47 48 48 48 47 47 47 46 46 46 46 46 45 45 45 45 45 45 45 44
50 50 49 49 48 48 48 48 48 49 49 48 48 48 48 48 48 48 48 48 48 48 48 48 47 47 47 47 47 46 46 46 45 45 45 45 45 45 45 45 45 45 45 45 44 44 44 46 47 47 48 48 48 48 47 47 46 46 45 45 45 45 44 45 45 44 44 45 45
49 49 48 48 48 48 48 48 48 48 48 48 48 48 48 48 48 48 48 47 47 47 47 47 46 46 46 46 46 46 46 46 45 45 45 45 44 44 45 45 46 46 45 44 42 42 43 44 45 46 47 48 48 47 47 47 46 46 45 44 44 43 43 43 44 44 44 44 44
48 48 47 47 47 48 48 48 47 47 47 47 47 47 47 47 47 47 47 47 46 46 46 46 45 45 45 45 45 45 45 45 45 45 44 44 44 44 45 46 46 45 44 43 42 42 43 43 44 45 46 46 46 46 46 46 46 45 45 44 43 43 42 42 43 43 44 44 44
47 47 47 47 48 48 47 47 47 47 47 47 47 47 47 47 47 47 46 46 46 46 45 45 45 45 45 45 45 44 44 44 44 44 43 43 43 44 44 45 45 45 43 42 41 42 43 43 44 44 45 45 45 45 45 45 45 45 44 43 43 43 42 42 42 43 43 43 43
47 47 47 47 47 47 47 47 47 46 46 46 46 46 47 47 47 46 46 46 45 45 45 45 45 45 45 45 44 44 43 43 43 43 42 43 43 43 44 45 45 44 43 41 41 42 43 43 43 44 44 44 44 44 44 45 45 44 44 43 43 43 43 43 43 43 43 43 43
47 47 47 47 47 47 47 47 47 46 46 46 46 46 46 46 46 46 46 45 45 45 44 44 45 45 45 44 43 43 43 42 42 42 42 42 43 44 44 45 44 43 42 40 41 42 42 43 43 43 43 43 44 44 45 45 45 44 44 44 44 43 43 43 42 42 42 42 42
47 47 47 47 47 47 47 46 46 46 46 46 46 46 46 46 46 45 45 45 44 44 44 44 45 44 44 43 43 43 42 42 41 42 42 43 43 43 44 44 44 43 42 40 41 42 42 43 43 43 43 43 43 44 44 45 45 44 44 44 43 43 43 42 42 42 42 42 42
47 47 47 47 47 47 46 46 46 46 46 46 46 46 46 46 45 45 45 44 44 44 44 44 44 43 43 43 43 42 42 41 42 42 42 42 43 43 43 43 43 42 41 40 41 41 42 42 42 42 42 42 43 43 44 44 44 44 44 43 43 43 42 42 42 42 42 42 41
48 47 47 47 46 46 46 46 46 46 46 46 46 46 45 45 44 44 44 44 43 43 44 44 43 43 42 42 42 42 42 42 42 42 42 42 42 42 42 43 43 42 41 40 41 41 42 42 42 42 42 42 42 43 44 44 44 44 44 43 43 42 42 42 42 42 42 41 41
47 47 47 46 46 45 45 45 46 46 46 46 45 45 44 43 43 43 43 43 43 43 43 43 43 43 42 42 42 42 42 42 42 42 42 41 41 42 42 43 43 42 41 40 40 41 41 41 41 41 41 41 42 43 44 44 44 44 44 43 43 43 42 42 42 42 41 41 41
47 46 46 45 45 45 45 45 46 46 45 45 44 43 43 42 42 42 42 43 43 43 43 43 43 42 42 42 42 42 42 42 42 42 41 41 41 41 42 43 43 42 40 40 40 40 41 41 41 41 41 41 42 43 44 44 44 44 43 43 43 43 43 42 42 42 42 42 42
46 45 45 44 44 44 45 45 45 45 44 43 43 42 42 42 42 42 42 42 42 42 42 41 41 41 41 41 42 42 42 42 42 41 41 41 41 41 41 42 42 41 39 39 39 40 40 40 40 41 41 41 42 43 44 44 44 43 43 43 43 43 42 42 42 42 42 42 42
46 45 45 44 44 44 44 44 44 44 43 43 42 42 42 42 42 42 42 41 41 40 40 40 40 41 41 41 42 42 42 42 41 41 41 41 41 41 41 42 42 41 40 39 39 39 40 40 40 40 41 41 42 43 44 44 43 43 43 43 42 42 42 42 42 42 42 42 41
46 45 45 44 44 44 44 44 44 43 43 43 42 41 41 41 41 41 41 41 40 40 40 40 41 42 42 42 42 42 41 41 41 41 40 40 40 40 41 41 41 41 40 39 39 39 39 39 40 40 40 41 42 43 43 43 43 43 42 42 42 42 42 42 42 42 42 41 40
45 45 44 44 44 44 44 44 44 43 43 42 41 41 41 41 40 40 40 41 41 41 41 42 42 42 42 41 41 41 40 40 40 40 40 40 40 40 40 40 41 41 40 39 38 38 39 39 39 40 40 41 42 42 42 42 42 42 42 41 42 42 42 42 42 41 40 40 39
45 45 45 44 44 44 44 44 43 43 42 41 41 41 41 40 39 39 39 41 42 42 42 42 42 41 41 41 41 41 40 40 40 40 40 40 39 39 39 40 40 40 40 38 38 38 38 39 39 39 40 41 41 41 42 41 41 41 41 41 41 41 42 41 41 40 38 38 38
45 45 45 45 45 44 44 44 43 42 41 41 40 40 40 39 38 38 39 40 42 43 43 42 41 41 41 41 41 41 40 40 40 39 39 39 39 38 38 39 39 40 39 38 38 38 38 39 39 39 40 40 41 41 41 41 40 40 40 40 40 40 40 40 39 38 38 39 39
46 46 45 45 45 44 44 43 42 42 41 40 40 39 39 38 38 38 39 41 42 42 42 42 41 40 40 40 41 41 40 40 40 40 39 39 39 38 38 39 39 39 39 39 38 38 38 38 39 39 39 40 41 41 41 40 40 39 39 40 40 39 39 38 37 38 39 40 40
MSLP
1011.47 1011.83 1012.11 1012.39 1012.59 1012.79 1012.99 1013.23 1013.51 1013.75 1013.99 1014.23 1014.47 1014.67 1014.87 1015.07 1015.31 1015.63 1015.91 1016.15 1016.39 1016.67 1016.95 1017.27 1017.51 1017.71 1017.91 1018.03 1018.07 1018.15 1018.23 1018.39 1018.51 1018.67 1018.79 1018.91 1018.99 1019.11 1019.23 1019.39 1019.51 1019.55 1019.67 1019.75 1019.79 1019.83 1019.83 1019.83 1019.87 1019.95 1019.95 1019.99 1020.03 1020.03 1020.07 1020.15 1020.15 1020.11 1020.07 1020.03 1019.99 1019.99 1019.95 1019.87 1019.79 1019.75 1019.71 1019.71 1019.71
1011.47 1011.79 1012.07 1012.35 1012.59 1012.79 1012.99 1013.27 1013.55 1013.83 1014.07 1014.27 1014.43 1014.59 1014.79 1015.07 1015.31 1015.59 1015.87 1016.15 1016.43 1016.71 1017.03 1017.35 1017.59 1017.79 1017.91 1018.03 1018.07 1018.15 1018.23 1018.39 1018.51 1018.67 1018.83 1018.95 1019.11 1019.23 1019.31 1019.39 1019.51 1019.63 1019.67 1019.75 1019.79 1019.79 1019.79 1019.83 1019.83 1019.91 1019.95 1019.95 1019.95 1019.99 1020.03 1020.11 1020.11 1020.07 1020.03 1019.95 1019.95 1019.95 1019.95 1019.87 1019.79 1019.75 1019.75 1019.75 1019.71
1011.43 1011.75 1012.07 1012.31 1012.55 1012.79 1012.99 1013.23 1013.51 1013.79 1013.99 1014.23 1014.43 1014.63 1014.79 1015.11 1015.35 1015.59 1015.87 1016.19 1016.47 1016.79 1017.11 1017.39 1017.63 1017.79 1017.87 1017.95 1018.07 1018.15 1018.27 1018.43 1018.55 1018.71 1018.83 1018.99 1019.15 1019.23 1019.35 1019.47 1019.55 1019.67 1019.71 1019.79 1019.79 1019.79 1019.79 1019.83 1019.87 1019.91 1019.95 1019.95 1019.91 1019.91 1019.95 1020.07 1020.07 1020.07 1019.95 1019.95 1019.95 1019.95 1019.91 1019.83 1019.79 1019.75 1019.75 1019.71 1019.67
1011.43 1011.71 1011.99 1012.23 1012.51 1012.67 1012.83 1013.07 1013.35 1013.63 1013.87 1014.19 1014.43 1014.67 1014.91 1015.19 1015.43 1015.67 1015.95 1016.27 1016.59 1016.87 1017.19 1017.39 1017.63 1017.79 1017.87 1017.95 1018.03 1018.15 1018.35 1018.51 1018.63 1018.75 1018.87 1019.03 1019.19 1019.27 1019.39 1019.47 1019.55 1019.67 1019.79 1019.79 1019.83 1019.83 1019.87 1019.87 1019.87 1019.91 1019.91 1019.91 1019.83 1019.87 1019.95 1020.03 1020.03 1019.99 1019.95 1019.95 1019.95 1019.95 1019.91 1019.83 1019.79 1019.79 1019.79 1019.71 1019.67
1011.39 1011.67 1011.91 1012.15 1012.39 1012.59 1012.79 1012.99 1013.23 1013.51 1013.83 1014.11 1014.39 1014.67 1014.95 1015.27 1015.51 1015.79 1016.07 1016.35 1016.67 1016.95 1017.19 1017.39 1017.55 1017.75 1017.87 1017.95 1018.03 1018.23 1018.39 1018.55 1018.71 1018.79 1018.91 1019.07 1019.19 1019.31 1019.39 1019.51 1019.59 1019.67 1019.79 1019.87 1019.87 1019.91 1019.95 1019.91 1019.91 1019.91 1019.91 1019.87 1019.91 1019.95 1019.95 1019.99 1019.95 1019.95 1019.95 1019.95 1019.95 1019.95 1019.91 1019.83 1019.79 1019.79 1019.79 1019.75 1019.67
1011.39 1011.63 1011.83 1012.07 1012.35 1012.59 1012.79 1013.03 1013.23 1013.51 1013.79 1014.07 1014.35 1014.67 1014.99 1015.31 1015.55 1015.79 1016.07 1016.39 1016.71 1016.99 1017.23 1017.43 1017.59 1017.71 1017.79 1017.95 1018.07 1018.23 1018.43 1018.63 1018.79 1018.83 1018.95 1019.11 1019.23 1019.31 1019.39 1019.51 1019.63 1019.71 1019.79 1019.83 1019.91 1019.95 1019.95 1019.91 1019.91 1019.87 1019.87 1019.91 1019.91 1019.95 1019.99 1020.03 1019.95 1019.91 1019.87 1019.87 1019.91 1019.91 1019.91 1019.83 1019.79 1019.79 1019.75 1019.67 1019.63
1011.27 1011.51 1011.79 1012.07 1012.27 1012.51 1012.79 1013.07 1013.31 1013.55 1013.79 1014.07 1014.35 1014.63 1014.95 1015.23 1015.51 1015.79 1016.07 1016.39 1016.75 1017.03 1017.23 1017.43 1017.51 1017.63 1017.79 1017.95 1018.07 1018.27 1018.47 1018.63 1018.79 1018.87 1018.95 1019.11 1019.23 1019.35 1019.43 1019.55 1019.63 1019.71 1019.79 1019.83 1019.87 1019.91 1019.91 1019.83 1019.83 1019.83 1019.87 1019.87 1019.87 1019.91 1019.95 1019.99 1019.95 1019.83 1019.79 1019.75 1019.79 1019.83 1019.83 1019.79 1019.79 1019.79 1019.71 1019.63 1019.55
1011.31 1011.55 1011.79 1012.07 1012.31 1012.55 1012.79 1013.07 1013.31 1013.59 1013.87 1014.15 1014.43 1014.67 1014.95 1015.23 1015.51 1015.79 1016.11 1016.43 1016.75 1016.99 1017.23 1017.39 1017.51 1017.63 1017.79 1017.95 1018.11 1018.31 1018.47 1018.63 1018.79 1018.91 1018.99 1019.11 1019.23 1019.35 1019.43 1019.55 1019.67 1019.71 1019.79 1019.79 1019.79 1019.79 1019.83 1019.83 1019.79 1019.79 1019.79 1019.83 1019.83 1019.83 1019.91 1019.95 1019.95 1019.83 1019.75 1019.67 1019.71 1019.79 1019.79 1019.79 1019.79 1019.71 1019.67 1019.59 1019.51
1011.43 1011.67 1011.95 1012.23 1012.39 1012.67 1012.91 1013.11 1013.35 1013.63 1013.87 1014.19 1014.51 1014.79 1015.03 1015.31 1015.59 1015.87 1016.15 1016.43 1016.71 1016.95 1017.19 1017.39 1017.51 1017.67 1017.79 1017.99 1018.15 1018.35 1018.51 1018.63 1018.79 1018.91 1018.99 1019.11 1019.23 1019.31 1019.43 1019.55 1019.63 1019.67 1019.79 1019.79 1019.79 1019.79 1019.79 1019.79 1019.79 1019.79 1019.79 1019.79 1019.79 1019.79 1019.83 1019.91 1019.87 1019.79 1019.75 1019.67 1019.71 1019.71 1019.75 1019.75 1019.67 1019.67 1019.59 1019.51 1019.47
1011.47 1011.79 1012.07 1012.35 1012.55 1012.79 1012.99 1013.23 1013.47 1013.71 1013.95 1014.27 1014.59 1014.91 1015.19 1015.47 1015.67 1015.91 1016.15 1016.43 1016.71 1016.95 1017.19 1017.35 1017.51 1017.71 1017.87 1018.03 1018.23 1018.39 1018.55 1018.67 1018.79 1018.95 1019.03 1019.11 1019.23 1019.35 1019.43 1019.51 1019.59 1019.67 1019.71 1019.79 1019.79 1019.79 1019.79 1019.75 1019.71 1019.71 1019.75 1019.75 1019.71 1019.75 1019.79 1019.83 1019.79 1019.75 1019.71 1019.67 1019.67 1019.67 1019.63 1019.59 1019.55 1019.51 1019.47 1019.43 1019.39
1011.55 1011.83 1012.11 1012.39 1012.67 1012.91 1013.11 1013.39 1013.63 1013.91 1014.19 1014.47 1014.79 1015.11 1015.35 1015.59 1015.79 1015.99 1016.23 1016.51 1016.71 1016.95 1017.19 1017.39 1017.51 1017.71 1017.91 1018.11 1018.31 1018.43 1018.59 1018.71 1018.83 1018.95 1019.07 1019.15 1019.27 1019.39 1019.47 1019.51 1019.55 1019.67 1019.71 1019.75 1019.79 1019.75 1019.75 1019.71 1019.67 1019.67 1019.71 1019.71 1019.71 1019.67 1019.71 1019.75 1019.75 1019.71 1019.67 1019.67 1019.67 1019.63 1019.55 1019.51 1019.51 1019.43 1019.39 1019.35 1019.31
1011.67 1011.95 1012.23 1012.51 1012.71 1012.95 1013.23 1013.47 1013.79 1014.07 1014.39 1014.67 1014.95 1015.23 1015.43 1015.67 1015.91 1016.11 1016.35 1016.51 1016.71 1016.95 1017.23 1017.47 1017.63 1017.79 1017.99 1018.23 1018.39 1018.51 1018.67 1018.79 1018.91 1018.99 1019.11 1019.23 1019.39 1019.43 1019.51 1019.55 1019.63 1019.67 1019.71 1019.75 1019.75 1019.71 1019.71 1019.67 1019.67 1019.63 1019.63 1019.63 1019.59 1019.59 1019.63 1019.67 1019.67 1019.63 1019.59 1019.55 1019.55 1019.51 1019.43 1019.39 1019.39 1019.39 1019.35 1019.31 1019.27
1011.79 1012.03 1012.31 1012.55 1012.79 1013.07 1013.27 1013.59 1013.95 1014.23 1014.51 1014.79 1015.07 1015.31 1015.55 1015.79 1016.03 1016.19 1016.35 1016.51 1016.75 1016.99 1017.31 1017.55 1017.71 1017.87 1018.07 1018.27 1018.47 1018.63 1018.75 1018.83 1018.95 1019.07 1019.19 1019.31 1019.39 1019.47 1019.51 1019.59 1019.67 1019.67 1019.71 1019.75 1019.75 1019.71 1019.67 1019.67 1019.67 1019.63 1019.55 1019.55 1019.51 1019.51 1019.55 1019.59 1019.59 1019.51 1019.51 1019.47 1019.43 1019.39 1019.35 1019.31 1019.31 1019.31 1019.27 1019.27 1019.23
1011.83 1012.07 1012.35 1012.63 1012.91 1013.11 1013.39 1013.71 1014.07 1014.39 1014.67 1014.95 1015.23 1015.43 1015.67 1015.95 1016.11 1016.27 1016.39 1016.59 1016.79 1017.07 1017.35 1017.59 1017.79 1017.99 1018.19 1018.39 1018.51 1018.67 1018.79 1018.91 1018.99 1019.11 1019.23 1019.35 1019.39 1019.47 1019.51 1019.59 1019.67 1019.67 1019.67 1019.71 1019.75 1019.71 1019.67 1019.63 1019.63 1019.63 1019.59 1019.51 1019.51 1019.51 1019.51 1019.51 1019.51 1019.51 1019.47 1019.39 1019.35 1019.31 1019.27 1019.23 1019.23 1019.23 1019.23 1019.19 1019.15
1011.91 1012.15 1012.43 1012.71 1012.95 1013.23 1013.51 1013.83 1014.15 1014.51 1014.79 1015.07 1015.31 1015.51 1015.75 1015.95 1016.19 1016.35 1016.51 1016.67 1016.91 1017.15 1017.39 1017.63 1017.87 1018.11 1018.35 1018.47 1018.63 1018.75 1018.87 1018.95 1019.07 1019.19 1019.23 1019.35 1019.43 1019.51 1019.55 1019.59 1019.67 1019.67 1019.67 1019.67 1019.67 1019.67 1019.67 1019.67 1019.67 1019.63 1019.55 1019.51 1019.51 1019.51 1019.47 1019.47 1019.43 1019.43 1019.39 1019.39 1019.31 1019.27 1019.23 1019.23 1019.19 1019.15 1019.15 1019.11 1019.03
1011.95 1012.27 1012.55 1012.79 1013.07 1013.31 1013.59 1013.91 1014.23 1014.59 1014.87 1015.15 1015.39 1015.59 1015.79 1016.03 1016.27 1016.47 1016.59 1016.79 1016.99 1017.23 1017.47 1017.71 1017.95 1018.23 1018.47 1018.63 1018.75 1018.83 1018.95 1019.03 1019.11 1019.19 1019.27 1019.35 1019.43 1019.51 1019.51 1019.59 1019.63 1019.67 1019.67 1019.67 1019.63 1019.63 1019.67 1019.67 1019.67 1019.63 1019.59 1019.51 1019.51 1019.47 1019.39 1019.39 1019.39 1019.35 1019.35 1019.31 1019.27 1019.23 1019.19 1019.19 1019.11 1019.11 1019.11 1019.07 1018.99
1012.07 1012.39 1012.67 1012.87 1013.15 1013.43 1013.67 1013.95 1014.31 1014.67 1014.95 1015.23 1015.47 1015.67 1015.87 1016.07 1016.31 1016.51 1016.67 1016.83 1017.03 1017.27 1017.55 1017.79 1018.07 1018.27 1018.51 1018.67 1018.83 1018.91 1018.95 1019.11 1019.15 1019.23 1019.27 1019.35 1019.43 1019.51 1019.55 1019.59 1019.67 1019.67 1019.67 1019.67 1019.59 1019.59 1019.59 1019.63 1019.63 1019.59 1019.55 1019.51 1019.47 1019.39 1019.39 1019.35 1019.27 1019.23 1019.23 1019.23 1019.19 1019.15 1019.11 1019.11 1019.11 1019.11 1019.07 1018.99 1018.91
1012.15 1012.47 1012.75 1012.99 1013.27 1013.55 1013.79 1014.07 1014.39 1014.75 1015.07 1015.31 1015.55 1015.79 1015.95 1016.15 1016.39 1016.55 1016.79 1016.95 1017.15 1017.39 1017.63 1017.91 1018.11 1018.31 1018.51 1018.67 1018.83 1018.95 1019.03 1019.11 1019.19 1019.23 1019.35 1019.39 1019.47 1019.51 1019.59 1019.67 1019.67 1019.67 1019.67 1019.67 1019.63 1019.55 1019.55 1019.55 1019.55 1019.51 1019.51 1019.47 1019.39 1019.39 1019.31 1019.23 1019.23 1019.19 1019.15 1019.15 1019.11 1019.11 1019.11 1019.11 1019.07 1019.03 1018.99 1018.91 1018.83
1012.23 1012.55 1012.87 1013.15 1013.43 1013.71 1013.99 1014.27 1014.59 1014.87 1015.15 1015.43 1015.67 1015.87 1016.07 1016.23 1016.43 1016.67 1016.91 1017.11 1017.31 1017.51 1017.67 1017.95 1018.19 1018.39 1018.55 1018.67 1018.83 1018.95 1019.07 1019.15 1019.23 1019.31 1019.39 1019.51 1019.55 1019.59 1019.63 1019.67 1019.67 1019.71 1019.71 1019.67 1019.67 1019.63 1019.55 1019.55 1019.51 1019.47 1019.39 1019.39 1019.31 1019.27 1019.23 1019.19 1019.15 1019.11 1019.11 1019.07 1019.07 1019.03 1019.03 1018.99 1018.99 1018.99 1018.95 1018.83 1018.79
1012.39 1012.67 1012.99 1013.35 1013.63 1013.95 1014.19 1014.51 1014.79 1015.03 1015.31 1015.55 1015.79 1015.99 1016.23 1016.43 1016.59 1016.79 1016.99 1017.23 1017.47 1017.67 1017.79 1017.99 1018.23 1018.43 1018.59 1018.75 1018.87 1018.99 1019.11 1019.23 1019.31 1019.39 1019.51 1019.55 1019.59 1019.63 1019.67 1019.71 1019.71 1019.71 1019.71 1019.67 1019.67 1019.63 1019.59 1019.51 1019.51 1019.39 1019.35 1019.27 1019.23 1019.15 1019.11 1019.11 1019.07 1019.03 1018.99 1018.95 1018.95 1018.95 1018.95 1018.95 1018.95 1018.91 1018.87 1018.79 1018.71
1012.55 1012.87 1013.23 1013.51 1013.83 1014.15 1014.43 1014.67 1014.95 1015.23 1015.47 1015.71 1015.91 1016.11 1016.39 1016.59 1016.79 1016.95 1017.15 1017.39 1017.59 1017.79 1017.95 1018.07 1018.23 1018.43 1018.63 1018.79 1018.95 1019.07 1019.23 1019.31 1019.39 1019.47 1019.51 1019.59 1019.63 1019.67 1019.71 1019.75 1019.71 1019.71 1019.67 1019.67 1019.67 1019.59 1019.55 1019.51 1019.43 1019.39 1019.27 1019.19 1019.11 1019.11 1019.03 1019.03 1018.95 1018.95 1018.91 1018.87 1018.83 1018.79 1018.83 1018.83 1018.83 1018.79 1018.79 1018.71 1018.63
1012.79 1013.11 1013.47 1013.79 1014.07 1014.39 1014.67 1014.95 1015.15 1015.39 1015.63 1015.83 1016.07 1016.31 1016.51 1016.71 1016.95 1017.19 1017.39 1017.55 1017.71 1017.87 1018.03 1018.19 1018.35 1018.51 1018.67 1018.79 1018.95 1019.11 1019.27 1019.39 1019.47 1019.51 1019.55 1019.67 1019.67 1019.75 1019.79 1019.79 1019.71 1019.71 1019.67 1019.63 1019.63 1019.55 1019.51 1019.47 1019.39 1019.31 1019.23 1019.11 1019.07 1018.99 1018.95 1018.95 1018.87 1018.83 1018.79 1018.75 1018.71 1018.67 1018.67 1018.71 1018.67 1018.67 1018.63 1018.55 1018.47
1013.03 1013.39 1013.75 1014.07 1014.39 1014.67 1014.91 1015.11 1015.35 1015.55 1015.79 1016.03 1016.23 1016.51 1016.71 1016.91 1017.11 1017.35 1017.55 1017.67 1017.83 1017.95 1018.11 1018.27 1018.43 1018.63 1018.79 1018.91 1019.07 1019.19 1019.31 1019.43 1019.51 1019.59 1019.67 1019.71 1019.71 1019.79 1019.79 1019.79 1019.71 1019.67 1019.67 1019.59 1019.59 1019.55 1019.51 1019.39 1019.27 1019.19 1019.07 1018.95 1018.91 1018.91 1018.87 1018.83 1018.79 1018.79 1018.71 1018.67 1018.63 1018.59 1018.55 1018.51 1018.51 1018.47 1018.43 1018.39 1018.31
1013.27 1013.59 1013.95 1014.31 1014.59 1014.83 1015.11 1015.31 1015.51 1015.71 1015.95 1016.23 1016.43 1016.67 1016.87 1017.11 1017.31 1017.51 1017.67 1017.79 1017.95 1018.07 1018.23 1018.39 1018.59 1018.75 1018.91 1019.03 1019.15 1019.23 1019.31 1019.39 1019.47 1019.59 1019.67 1019.71 1019.75 1019.75 1019.75 1019.71 1019.67 1019.67 1019.63 1019.63 1019.67 1019.67 1019.55 1019.39 1019.23 1019.11 1018.95 1018.87 1018.79 1018.75 1018.75 1018.75 1018.71 1018.67 1018.63 1018.59 1018.55 1018.51 1018.47 1018.43 1018.39 1018.35 1018.27 1018.19 1018.11
1013.51 1013.83 1014.15 1014.47 1014.75 1014.99 1015.23 1015.43 1015.67 1015.87 1016.11 1016.39 1016.63 1016.83 1017.03 1017.23 1017.43 1017.59 1017.75 1017.87 1018.03 1018.23 1018.39 1018.51 1018.75 1018.95 1019.07 1019.15 1019.23 1019.31 1019.35 1019.39 1019.47 1019.55 1019.63 1019.67 1019.71 1019.71 1019.71 1019.63 1019.59 1019.59 1019.67 1019.71 1019.79 1019.75 1019.63 1019.51 1019.35 1019.19 1019.07 1018.91 1018.79 1018.75 1018.67 1018.67 1018.63 1018.59 1018.55 1018.51 1018.51 1018.47 1018.39 1018.31 1018.23 1018.23 1018.11 1018.03 1017.95
1013.75 1014.03 1014.35 1014.67 1014.91 1015.11 1015.39 1015.59 1015.83 1016.07 1016.35 1016.55 1016.79 1016.95 1017.15 1017.39 1017.55 1017.71 1017.83 1017.99 1018.19 1018.35 1018.51 1018.67 1018.87 1018.99 1019.11 1019.23 1019.31 1019.39 1019.39 1019.51 1019.55 1019.59 1019.63 1019.63 1019.67 1019.67 1019.67 1019.59 1019.55 1019.59 1019.67 1019.71 1019.75 1019.67 1019.59 1019.51 1019.39 1019.31 1019.19 1019.03 1018.95 1018.79 1018.67 1018.55 1018.51 1018.51 1018.51 1018.51 1018.51 1018.43 1018.31 1018.19 1018.07 1017.99 1017.95 1017.91 1017.79
1013.91 1014.23 1014.51 1014.79 1015.03 1015.27 1015.51 1015.79 1016.03 1016.27 1016.51 1016.71 1016.91 1017.11 1017.31 1017.51 1017.67 1017.79 1017.95 1018.11 1018.31 1018.47 1018.63 1018.79 1018.95 1019.11 1019.19 1019.27 1019.31 1019.39 1019.47 1019.55 1019.63 1019.67 1019.67 1019.71 1019.67 1019.67 1019.63 1019.55 1019.55 1019.59 1019.67 1019.71 1019.71 1019.67 1019.55 1019.43 1019.39 1019.31 1019.23 1019.11 1018.99 1018.83 1018.67 1018.55 1018.51 1018.47 1018.43 1018.43 1018.39 1018.31 1018.19 1018.07 1017.95 1017.87 1017.79 1017.71 1017.71
1014.07 1014.39 1014.67 1014.91 1015.15 1015.43 1015.71 1015.99 1016.23 1016.43 1016.67 1016.87 1017.11 1017.23 1017.43 1017.63 1017.79 1017.95 1018.07 1018.23 1018.39 1018.55 1018.67 1018.83 1018.99 1019.11 1019.19 1019.27 1019.39 1019.47 1019.55 1019.63 1019.67 1019.71 1019.75 1019.71 1019.67 1019.67 1019.59 1019.51 1019.51 1019.59 1019.67 1019.71 1019.71 1019.63 1019.51 1019.43 1019.39 1019.31 1019.23 1019.15 1019.03 1018.91 1018.71 1018.55 1018.43 1018.39 1018.35 1018.27 1018.23 1018.15 1018.07 1017.95 1017.91 1017.79 1017.71 1017.63 1017.59
1014.23 1014.47 1014.75 1015.03 1015.31 1015.59 1015.91 1016.15 1016.39 1016.55 1016.79 1016.99 1017.23 1017.39 1017.59 1017.71 1017.87 1018.03 1018.19 1018.35 1018.51 1018.59 1018.75 1018.91 1019.03 1019.11 1019.19 1019.27 1019.43 1019.51 1019.63 1019.67 1019.75 1019.75 1019.75 1019.71 1019.67 1019.59 1019.55 1019.55 1019.55 1019.59 1019.67 1019.75 1019.67 1019.59 1019.47 1019.39 1019.39 1019.27 1019.23 1019.15 1019.03 1018.83 1018.67 1018.51 1018.39 1018.27 1018.23 1018.15 1018.11 1018.07 1017.95 1017.91 1017.83 1017.75 1017.67 1017.59 1017.51
1014.35 1014.63 1014.87 1015.15 1015.43 1015.75 1016.03 1016.27 1016.51 1016.71 1016.95 1017.15 1017.35 1017.51 1017.67 1017.79 1017.95 1018.11 1018.23 1018.39 1018.51 1018.67 1018.75 1018.91 1019.07 1019.11 1019.19 1019.31 1019.43 1019.51 1019.63 1019.71 1019.75 1019.75 1019.71 1019.67 1019.59 1019.55 1019.55 1019.55 1019.59 1019.63 1019.67 1019.71 1019.63 1019.51 1019.47 1019.39 1019.31 1019.23 1019.15 1019.11 1018.99 1018.83 1018.67 1018.47 1018.31 1018.23 1018.15 1018.07 1018.03 1017.95 1017.91 1017.87 1017.79 1017.71 1017.63 1017.51 1017.43
1014.51 1014.75 1014.99 1015.27 1015.59 1015.91 1016.19 1016.43 1016.67 1016.87 1017.07 1017.23 1017.43 1017.59 1017.75 1017.91 1018.07 1018.19 1018.35 1018.47 1018.63 1018.75 1018.83 1018.95 1019.11 1019.19 1019.27 1019.39 1019.43 1019.51 1019.63 1019.67 1019.67 1019.67 1019.67 1019.63 1019.55 1019.55 1019.55 1019.55 1019.59 1019.59 1019.67 1019.67 1019.63 1019.51 1019.43 1019.35 1019.27 1019.23 1019.15 1019.11 1018.95 1018.79 1018.59 1018.39 1018.27 1018.19 1018.07 1018.03 1017.95 1017.95 1017.87 1017.79 1017.75 1017.67 1017.55 1017.51 1017.39
1014.67 1014.95 1015.15 1015.47 1015.75 1016.07 1016.31 1016.59 1016.79 1017.03 1017.19 1017.35 1017.51 1017.71 1017.83 1017.95 1018.15 1018.31 1018.47 1018.55 1018.71 1018.83 1018.95 1018.99 1019.11 1019.23 1019.35 1019.43 1019.51 1019.55 1019.59 1019.59 1019.63 1019.63 1019.63 1019.63 1019.59 1019.59 1019.59 1019.55 1019.55 1019.55 1019.63 1019.67 1019.59 1019.51 1019.43 1019.35 1019.27 1019.19 1019.11 1019.03 1018.87 1018.71 1018.51 1018.31 1018.19 1018.07 1017.99 1017.95 1017.91 1017.87 1017.79 1017.79 1017.67 1017.59 1017.51 1017.43 1017.35
1014.79 1015.11 1015.39 1015.63 1015.95 1016.23 1016.51 1016.75 1016.95 1017.11 1017.31 1017.51 1017.67 1017.83 1017.99 1018.15 1018.31 1018.47 1018.59 1018.67 1018.79 1018.87 1018.95 1019.03 1019.15 1019.23 1019.35 1019.39 1019.47 1019.51 1019.51 1019.55 1019.59 1019.67 1019.67 1019.67 1019.67 1019.63 1019.55 1019.51 1019.51 1019.51 1019.63 1019.67 1019.59 1019.51 1019.39 1019.35 1019.23 1019.15 1019.07 1018.95 1018.79 1018.55 1018.35 1018.19 1018.07 1017.99 1017.95 1017.83 1017.79 1017.75 1017.71 1017.67 1017.59 1017.51 1017.47 1017.39 1017.27
1014.95 1015.23 1015.51 1015.83 1016.11 1016.39 1016.63 1016.87 1017.07 1017.23 1017.43 1017.63 1017.79 1017.99 1018.15 1018.31 1018.43 1018.55 1018.67 1018.79 1018.87 1018.95 1019.07 1019.11 1019.23 1019.31 1019.39 1019.43 1019.43 1019.47 1019.51 1019.51 1019.59 1019.67 1019.67 1019.67 1019.67 1019.59 1019.51 1019.47 1019.47 1019.55 1019.67 1019.67 1019.59 1019.51 1019.39 1019.31 1019.23 1019.11 1018.99 1018.83 1018.67 1018.43 1018.23 1018.07 1017.95 1017.87 1017.79 1017.71 1017.67 1017.63 1017.59 1017.51 1017.51 1017.43 1017.39 1017.27 1017.19
1015.15 1015.43 1015.71 1016.03 1016.27 1016.51 1016.75 1016.95 1017.19 1017.39 1017.55 1017.75 1017.95 1018.11 1018.27 1018.39 1018.47 1018.59 1018.75 1018.91 1019.03 1019.11 1019.23 1019.35 1019.39 1019.47 1019.51 1019.51 1019.51 1019.51 1019.51 1019.51 1019.59 1019.63 1019.67 1019.67 1019.63 1019.55 1019.51 1019.47 1019.47 1019.59 1019.67 1019.67 1019.59 1019.47 1019.39 1019.27 1019.19 1019.07 1018.95 1018.75 1018.51 1018.27 1018.07 1017.95 1017.79 1017.71 1017.67 1017.59 1017.51 1017.47 1017.39 1017.39 1017.35 1017.31 1017.23 1017.15 1017.11
1015.31 1015.55 1015.83 1016.15 1016.43 1016.67 1016.87 1017.11 1017.31 1017.51 1017.67 1017.87 1018.07 1018.23 1018.35 1018.47 1018.59 1018.71 1018.87 1019.03 1019.15 1019.23 1019.35 1019.43 1019.51 1019.51 1019.51 1019.51 1019.51 1019.51 1019.51 1019.55 1019.59 1019.63 1019.63 1019.67 1019.59 1019.51 1019.51 1019.47 1019.43 1019.51 1019.63 1019.67 1019.55 1019.47 1019.39 1019.23 1019.11 1018.95 1018.83 1018.67 1018.39 1018.15 1017.95 1017.79 1017.67 1017.59 1017.51 1017.47 1017.39 1017.31 1017.27 1017.23 1017.23 1017.15 1017.11 1017.07 1017.03
1015.51 1015.75 1015.99 1016.23 1016.51 1016.79 1016.99 1017.19 1017.39 1017.55 1017.75 1017.95 1018.11 1018.27 1018.43 1018.59 1018.71 1018.87 1018.99 1019.11 1019.19 1019.23 1019.31 1019.39 1019.39 1019.39 1019.43 1019.47 1019.51 1019.51 1019.59 1019.67 1019.67 1019.63 1019.63 1019.63 1019.59 1019.55 1019.51 1019.43 1019.39 1019.47 1019.51 1019.55 1019.51 1019.43 1019.35 1019.23 1019.07 1018.95 1018.75 1018.51 1018.31 1018.07 1017.91 1017.71 1017.59 1017.51 1017.39 1017.35 1017.27 1017.23 1017.19 1017.15 1017.07 1017.03 1016.99 1017.03 1017.07
1015.71 1015.95 1016.15 1016.39 1016.67 1016.87 1017.07 1017.23 1017.43 1017.63 1017.79 1018.03 1018.23 1018.39 1018.51 1018.67 1018.87 1019.03 1019.11 1019.11 1019.15 1019.19 1019.23 1019.27 1019.31 1019.39 1019.43 1019.51 1019.51 1019.59 1019.67 1019.67 1019.67 1019.63 1019.59 1019.63 1019.63 1019.63 1019.51 1019.43 1019.39 1019.43 1019.47 1019.51 1019.51 1019.39 1019.27 1019.15 1019.03 1018.91 1018.71 1018.51 1018.27 1018.07 1017.83 1017.67 1017.51 1017.43 1017.39 1017.27 1017.23 1017.15 1017.11 1017.03 1016.99 1016.99 1017.03 1017.07 1017.11
1015.91 1016.11 1016.31 1016.51 1016.75 1016.95 1017.11 1017.31 1017.51 1017.71 1017.95 1018.11 1018.35 1018.51 1018.67 1018.79 1018.99 1019.15 1019.23 1019.19 1019.15 1019.11 1019.19 1019.23 1019.35 1019.43 1019.51 1019.55 1019.51 1019.55 1019.63 1019.67 1019.71 1019.67 1019.63 1019.63 1019.67 1019.67 1019.63 1019.51 1019.39 1019.39 1019.43 1019.47 1019.43 1019.39 1019.23 1019.11 1018.95 1018.79 1018.67 1018.51 1018.23 1018.03 1017.83 1017.67 1017.51 1017.39 1017.31 1017.23 1017.11 1017.03 1016.95 1016.95 1016.95 1017.03 1017.07 1017.07 1016.99
1016.07 1016.27 1016.47 1016.67 1016.83 1017.03 1017.23 1017.43 1017.63 1017.83 1018.07 1018.23 1018.43 1018.63 1018.79 1018.95 1019.11 1019.23 1019.31 1019.27 1019.23 1019.15 1019.23 1019.31 1019.39 1019.51 1019.51 1019.55 1019.51 1019.51 1019.55 1019.63 1019.67 1019.71 1019.71 1019.67 1019.67 1019.71 1019.67 1019.51 1019.39 1019.35 1019.35 1019.39 1019.39 1019.31 1019.19 1019.03 1018.91 1018.75 1018.63 1018.43 1018.23 1018.03 1017.83 1017.67 1017.51 1017.39 1017.23 1017.19 1017.07 1016.95 1016.87 1016.95 1017.03 1017.07 1016.95 1016.79 1016.67
1016.27 1016.47 1016.63 1016.79 1016.95 1017.15 1017.35 1017.55 1017.79 1017.99 1018.23 1018.39 1018.55 1018.75 1018.95 1019.11 1019.23 1019.27 1019.31 1019.27 1019.27 1019.27 1019.31 1019.39 1019.47 1019.51 1019.55 1019.51 1019.51 1019.51 1019.51 1019.51 1019.59 1019.67 1019.67 1019.71 1019.71 1019.67 1019.63 1019.51 1019.43 1019.35 1019.27 1019.23 1019.23 1019.23 1019.11 1018.95 1018.83 1018.71 1018.59 1018.43 1018.23 1018.03 1017.83 1017.67 1017.47 1017.31 1017.19 1017.11 1017.07 1016.99 1016.95 1016.95 1016.95 1016.95 1016.79 1016.59 1016.39
Wind_Speed
13 12 10 10 9 9 9 8 9 9 8 8 9 9 8 8 8 8 7 7 7 6 6 6 6 6 7 9 9 9 9 9 9 9 9 8 8 8 8 7 7 6 6 5 5 4 3 3 3 2 2 1 1 1 1 1 1 2 2 2 2 2 3 3 3 3 3 3 3
14 13 12 11 10 9 8 8 9 8 8 7 8 8 8 8 8 8 8 7 7 7 7 6 7 8 9 10 10 10 10 10 10 9 9 9 8 8 7 7 6 6 5 5 4 3 3 3 2 2 1 1 1 1 1 1 1 2 2 2 2 2 3 3 3 3 3 3 3
14 13 12 11 11 10 9 9 10 10 10 9 8 8 8 7 7 7 7 8 8 8 7 7 7 9 10 10 9 9 9 10 10 9 8 8 8 8 7 7 7 6 5 4 4 3 2 2 2 1 1 1 1 1 1 1 1 2 2 2 2 2 2 2 3 3 3 3 3
14 13 13 13 14 13 12 11 12 13 12 10 9 9 8 7 7 7 8 9 9 8 7 7 8 8 9 9 10 9 9 9 9 9 8 8 8 8 8 7 7 6 5 4 4 3 3 2 1 1 1 1 1 1 1 1 1 1 1 1 2 2 2 2 2 2 2 3 3
13 13 13 13 15 15 13 12 14 13 12 10 9 9 8 7 7 8 8 8 8 8 8 9 8 8 8 9 10 10 10 10 9 8 8 8 8 8 7 7 7 6 5 5 4 3 3 2 1 1 1 1 1 0 0 1 1 1 1 1 1 2 2 2 2 2 2 3 3
14 13 13 13 15 14 12 12 14 13 12 10 10 10 9 8 8 8 9 9 9 10 10 10 9 9 10 10 11 10 10 9 8 8 8 8 8 7 7 7 6 6 5 5 4 4 3 2 2 1 1 1 1 1 1 1 1 1 1 1 1 1 2 2 2 2 3 3 4
14 14 14 14 15 14 13 13 13 13 12 11 12 12 11 10 10 11 11 10 10 10 10 9 9 10 10 10 10 9 9 8 8 8 8 8 7 7 7 7 6 6 5 5 4 3 3 2 1 1 1 1 1 1 1 0 1 1 2 2 1 1 2 3 2 3 3 4 5
14 14 14 15 15 15 15 15 14 13 11 10 12 13 14 13 13 13 12 11 10 9 9 8 10 10 10 10 10 9 9 9 8 8 8 7 8 8 7 7 6 5 5 4 3 3 2 2 1 1 1 1 1 1 1 0 1 2 2 2 2 2 2 2 3 3 4 5 6
13 13 14 14 14 14 15 16 15 13 12 12 13 14 14 14 15 14 13 11 10 9 9 9 10 11 11 10 10 9 8 8 8 8 8 7 8 7 7 6 6 5 4 4 3 3 2 2 2 1 1 1 1 1 1 0 1 2 2 3 2 2 3 3 3 4 4 5 6
13 14 14 14 14 15 15 15 14 14 14 14 14 15 14 14 14 13 11 10 10 10 10 10 11 11 11 10 9 9 8 7 7 8 7 7 7 7 6 5 5 5 4 3 3 3 2 2 2 1 1 1 1 1 1 1 1 2 3 2 3 3 4 4 4 5 5 5 6
14 15 14 14 15 15 15 14 13 13 13 14 14 14 14 13 12 11 11 10 11 11 11 11 11 11 10 9 9 8 8 7 7 7 7 7 7 6 6 5 5 4 4 3 3 2 2 2 1 1 1 1 1 1 1 1 2 3 3 3 4 4 5 5 5 5 5 5 6
15 15 15 15 15 15 15 13 12 12 13 14 14 13 13 12 12 12 12 12 12 12 11 11 11 10 9 8 8 8 7 7 7 7 7 7 6 6 5 5 4 4 4 3 2 2 2 1 1 1 1 1 1 1 1 1 2 3 4 4 4 5 5 5 5 5 5 5 6
16 16 15 15 16 15 14 13 12 12 13 13 13 12 11 11 12 12 13 13 12 11 10 10 10 9 9 8 8 7 7 7 7 7 7 6 6 6 5 5 4 4 4 3 2 2 2 1 1 1 1 1 1 1 1 2 3 4 4 5 5 5 6 6 6 6 6 6 7
16 16 16 16 16 15 14 13 11 11 12 13 12 11 11 11 11 12 12 12 12 11 10 10 9 8 8 8 8 8 7 7 7 7 7 6 6 5 5 4 4 4 3 3 2 2 2 1 1 1 1 2 2 2 2 3 3 4 5 5 6 6 6 6 6 6 6 7 7
16 16 16 16 15 14 13 13 11 11 12 12 11 11 11 10 11 11 11 12 12 11 10 9 8 8 8 8 8 8 8 7 7 7 7 6 6 5 5 4 4 3 3 2 2 2 2 1 1 1 2 2 2 3 3 3 4 4 5 5 6 6 7 7 7 7 7 7 8
16 16 16 16 15 14 13 12 10 10 11 11 11 11 10 10 10 10 11 11 11 10 9 9 9 8 8 8 8 8 8 7 7 7 6 6 6 5 5 4 4 3 2 2 2 2 2 2 2 2 2 3 3 3 4 4 5 5 5 6 6 6 7 7 7 7 7 8 8
16 16 16 15 15 14 13 12 10 10 11 11 11 11 10 10 10 10 11 11 10 10 10 10 9 8 8 8 7 7 7 7 6 6 6 5 5 5 4 4 3 3 2 2 1 1 2 2 2 2 3 3 4 4 4 5 5 5 6 6 6 7 7 7 7 7 7 8 9
16 16 15 15 15 14 14 13 12 12 12 12 12 11 10 10 10 10 10 10 10 11 11 11 9 9 8 8 7 6 6 6 6 5 5 5 5 4 4 3 3 2 1 1 1 1 1 2 2 3 3 3 4 4 5 5 6 6 6 7 7 7 7 7 7 7 7 8 9
16 16 15 15 14 14 14 14 13 13 13 12 11 11 11 11 11 11 11 10 11 11 12 11 10 9 9 8 7 6 5 5 5 5 5 5 4 4 4 3 3 2 1 1 1 1 2 2 3 3 4 4 4 5 5 6 6 6 7 7 7 7 7 7 7 7 8 8 9
16 15 15 14 14 14 14 14 14 13 13 12 12 12 12 12 12 12 11 11 11 11 11 11 10 9 9 8 8 7 6 5 5 5 5 4 4 4 3 3 2 1 1 1 1 2 2 3 3 4 4 5 5 5 6 6 6 7 7 7 7 7 7 7 7 8 8 9 9
15 15 14 14 14 14 14 14 13 13 13 13 13 13 13 12 12 12 12 12 11 11 11 11 10 10 9 8 8 7 6 5 5 5 5 4 4 3 3 2 1 1 1 1 2 2 3 3 4 4 5 5 6 6 6 6 7 7 7 7 7 7 7 8 8 8 9 9 9
14 14 14 14 14 14 14 13 13 13 13 13 13 13 13 12 12 12 12 11 11 11 11 10 10 9 9 8 8 7 6 5 5 4 4 4 3 3 2 1 1 0 1 1 2 2 3 4 5 5 5 6 6 6 7 7 7 7 8 8 8 8 8 8 8 9 9 10 10
14 14 14 13 14 14 14 13 13 13 13 13 13 13 12 12 12 12 11 11 11 10 10 9 9 9 8 8 7 7 6 5 5 4 4 3 3 2 2 1 1 1 1 1 2 3 4 4 5 5 6 6 6 7 7 7 7 8 8 9 9 9 9 9 9 9 9 10 10
14 14 13 12 13 14 14 13 13 13 13 13 13 13 12 12 12 12 11 11 10 10 9 8 8 8 8 7 7 6 6 6 5 5 4 3 3 2 1 1 1 1 1 1 2 3 4 5 5 6 6 6 7 7 7 7 7 8 8 9 9 9 9 9 9 10 10 10 10
15 14 14 13 14 14 13 13 13 13 13 13 13 12 12 12 12 11 11 11 10 10 9 9 8 7 7 6 6 6 5 5 5 5 4 3 2 1 1 1 0 1 1 1 3 4 6 6 6 6 7 7 7 7 7 8 8 8 8 8 9 9 9 10 10 10 10 11 10
15 15 15 14 14 14 14 14 14 13 13 13 13 12 12 12 11 11 11 11 10 10 9 9 8 7 6 6 6 5 5 4 4 3 3 2 2 1 0 0 1 1 1 2 4 5 7 7 7 7 7 7 7 7 8 8 8 8 8 8 9 9 9 10 10 10 10 10 10
15 15 15 14 14 14 14 13 13 13 13 13 12 12 12 11 10 11 11 11 10 10 9 8 7 7 6 5 5 5 5 4 3 3 2 2 1 0 0 1 1 1 1 3 5 6 7 8 8 8 8 7 8 8 8 8 8 8 8 8 8 9 9 10 10 11 11 10 10
15 15 15 15 15 14 14 14 13 13 13 12 12 12 11 11 11 11 10 10 10 9 8 7 6 5 5 4 5 5 4 4 3 2 2 1 1 0 1 2 2 2 2 4 6 7 8 8 9 9 9 8 8 8 8 8 8 7 7 7 8 8 9 9 9 10 10 11 10
15 15 15 15 15 14 14 14 13 13 13 12 12 12 11 11 11 11 10 10 9 8 7 5 5 4 4 4 5 4 4 3 2 2 1 1 0 1 1 2 2 2 3 5 6 7 8 8 9 9 9 9 8 7 7 7 7 7 7 7 7 8 8 9 9 9 10 10 10
15 15 15 15 15 14 14 13 13 13 12 11 12 12 11 11 11 10 10 9 8 7 6 5 5 5 5 5 4 4 3 3 2 2 1 1 1 1 2 2 2 3 3 5 7 8 8 9 9 10 10 11 9 8 7 7 7 7 7 7 7 8 9 9 10 10 10 10 10
15 15 15 15 15 14 14 13 13 12 12 11 11 11 11 10 10 9 9 8 8 7 6 6 6 6 5 5 4 4 3 3 2 1 1 1 1 2 2 2 2 3 4 5 7 8 9 9 10 10 11 11 10 9 8 8 7 7 7 7 8 9 10 9 10 10 11 11 11
15 15 15 15 15 14 13 13 12 12 12 12 11 11 10 10 9 9 8 8 7 7 7 7 7 6 5 5 4 3 3 3 2 1 1 1 1 2 2 2 2 3 4 6 7 8 9 10 10 11 11 12 11 10 9 8 8 8 8 9 9 10 10 9 9 10 11 11 11
15 15 15 15 14 14 13 13 12 12 12 11 11 10 10 9 9 8 8 7 7 7 7 6 6 6 5 5 4 4 3 2 2 1 1 1 1 2 2 3 2 3 4 6 8 9 10 10 11 11 12 13 11 10 9 9 8 7 8 8 9 9 10 10 10 10 11 11 11
15 15 15 15 14 13 13 12 12 12 11 11 10 10 9 9 8 8 7 6 6 6 6 5 5 5 4 4 3 3 2 2 2 1 1 1 1 2 2 3 2 3 4 7 8 9 10 10 11 12 12 13 10 9 9 9 8 8 8 9 9 9 9 9 10 10 11 11 11
15 15 15 14 14 13 13 12 12 11 11 11 10 10 9 9 8 8 7 6 6 5 5 4 4 4 3 3 2 2 2 2 1 1 1 1 2 2 3 3 3 3 4 7 8 9 10 11 11 12 13 12 9 8 8 9 8 8 9 9 10 10 10 9 9 10 10 11 10
15 15 15 14 13 13 12 12 12 11 11 11 10 9 9 8 8 7 7 7 6 6 5 5 4 4 4 3 3 2 2 1 1 1 1 1 2 3 3 4 3 4 5 6 8 9 10 11 12 12 12 11 8 8 8 8 8 8 9 10 10 10 10 10 9 9 10 9 9
14 14 14 14 13 13 12 12 11 11 11 10 10 9 9 8 7 7 6 6 6 6 5 5 5 4 4 3 3 2 2 1 1 1 1 1 2 3 4 4 4 4 5 6 8 9 10 11 12 12 12 10 8 8 8 7 7 7 8 9 9 9 9 9 9 9 9 9 8
13 14 14 14 13 12 12 11 11 11 11 10 9 8 8 8 7 6 5 5 5 5 5 5 4 4 3 3 2 2 2 1 1 1 1 1 2 3 4 5 5 5 5 6 8 9 10 11 12 12 12 10 9 8 8 7 7 7 8 8 8 9 9 8 7 7 7 8 8
13 13 13 13 13 12 12 11 11 11 10 10 9 8 8 7 6 4 3 3 4 4 5 4 4 4 3 2 2 2 2 1 1 1 1 2 2 3 4 5 5 5 5 6 8 9 10 11 12 13 12 10 9 8 7 7 7 8 8 7 8 8 8 7 7 6 7 8 10
12 12 12 12 12 12 11 11 11 10 9 9 9 8 7 7 5 4 3 3 3 4 4 4 4 3 2 2 2 2 2 2 1 0 1 2 2 3 4 5 5 5 5 6 7 9 10 12 12 13 12 10 9 8 7 7 7 8 8 7 7 7 7 7 6 6 7 9 10
12 12 12 11 11 11 11 11 10 10 9 9 8 8 7 6 5 4 4 3 3 3 3 3 3 3 2 1 1 1 1 1 1 1 0 1 2 2 3 4 5 6 6 6 7 9 10 12 12 13 12 10 9 8 7 7 7 8 8 8 8 7 7 7 6 7 8 9 9
Wind_Direction
145 149 152 155 156 156 156 154 153 152 152 152 152 151 149 146 144 143 143 141 137 134 133 133 133 135 138 140 136 132 128 125 125 125 125 125 124 124 125 126 129 133 136 140 143 143 140 137 132 131 134 145 162 164 164 181 232 257 267 273 282 289 292 290 289 290 290 285 283
148 150 151 152 152 152 151 150 150 150 150 151 150 147 145 143 142 141 140 136 133 130 129 128 132 136 139 139 135 131 128 127 127 127 127 126 125 126 127 127 130 133 137 141 143 143 142 143 140 140 148 167 192 189 179 178 238 263 273 278 288 293 293 288 290 293 294 290 286
149 151 151 152 153 153 153 153 153 152 150 148 147 144 142 141 139 137 134 131 129 128 127 129 134 138 139 137 133 130 129 129 130 130 129 128 128 128 128 128 130 133 135 138 139 139 141 145 142 148 166 192 210 204 189 178 237 266 282 293 297 294 288 286 291 296 295 290 288
150 152 154 155 157 158 158 156 154 152 149 146 143 140 138 136 134 130 128 127 127 128 129 133 136 138 138 136 133 130 130 132 132 131 130 129 130 130 130 131 132 133 133 134 134 137 141 147 147 165 192 211 224 219 199 206 247 267 284 301 297 290 287 286 293 296 295 291 292
153 156 158 159 160 160 158 154 152 149 146 144 141 138 135 132 130 129 128 128 129 131 133 135 136 137 137 134 132 131 131 133 133 132 131 130 130 131 132 132 133 133 133 134 136 140 148 158 161 179 200 214 221 208 195 249 267 270 272 270 274 280 285 286 291 292 290 289 289
156 158 159 159 159 157 153 151 149 147 144 142 141 139 137 136 135 134 132 129 129 130 132 134 135 135 135 133 132 132 133 134 134 133 132 131 131 132 132 132 133 134 136 138 142 149 161 174 177 183 196 204 199 174 154 236 272 275 273 259 258 269 278 283 287 288 286 286 291
157 157 156 156 155 152 149 147 146 144 142 141 142 141 140 139 137 134 131 128 129 131 134 135 137 136 135 134 134 134 135 136 135 134 134 133 134 134 134 134 136 137 140 145 151 158 169 184 187 189 192 200 194 171 158 200 278 286 284 280 273 274 278 283 286 285 285 289 295
153 152 152 152 150 148 146 146 145 144 143 142 142 141 139 137 134 132 129 128 131 133 136 136 137 136 135 136 136 136 136 137 136 136 135 134 135 135 136 137 139 140 143 149 156 162 171 186 196 197 193 194 200 175 149 123 289 289 290 291 286 280 278 281 281 281 284 290 293
146 146 147 148 146 145 145 144 144 143 142 140 139 138 136 133 132 131 130 130 132 134 134 135 136 135 135 135 135 135 136 137 136 136 136 136 137 138 140 142 143 145 147 152 158 166 177 192 192 190 191 200 201 175 144 152 275 283 287 290 290 287 284 280 282 284 286 289 292
143 144 145 146 144 142 142 141 141 139 137 135 134 133 132 131 132 131 130 129 131 132 133 134 135 135 134 134 134 135 135 136 136 136 137 138 139 141 143 146 148 149 151 156 161 173 184 197 190 183 183 201 201 185 174 214 269 280 284 288 291 291 290 288 289 290 291 292 296
143 145 146 146 143 141 138 137 135 133 131 130 130 130 130 130 130 129 128 128 129 130 131 133 134 134 133 132 133 134 134 135 135 136 137 138 139 141 143 146 150 151 152 155 165 178 190 200 189 185 187 201 208 204 205 235 270 281 285 287 290 290 291 294 297 297 297 299 301
145 146 146 144 142 139 136 133 130 128 128 128 129 129 129 128 128 127 127 128 128 128 129 131 132 132 131 130 132 132 133 134 135 135 135 136 137 140 142 144 148 150 152 156 167 179 190 194 197 197 201 216 227 232 242 265 279 284 288 290 291 292 294 299 302 304 305 306 304
146 145 144 142 140 137 134 129 127 127 128 129 129 128 127 126 127 128 128 128 126 126 127 128 128 128 128 128 130 132 133 135 135 135 135 136 139 141 144 146 151 153 155 158 168 182 190 187 197 214 232 247 267 280 289 284 287 290 293 296 296 298 301 305 307 307 307 306 303
145 143 141 140 138 135 131 128 127 127 129 129 128 127 126 126 128 128 128 126 125 125 125 126 125 125 126 129 130 132 134 135 135 135 136 138 142 145 147 149 153 157 158 159 167 181 193 193 204 228 255 272 283 288 289 285 289 292 296 299 300 302 304 306 308 308 307 306 304
143 141 140 139 137 134 131 129 127 128 129 129 128 127 126 127 128 128 126 124 124 124 124 124 122 122 124 127 129 131 134 135 136 137 138 140 144 147 149 151 154 157 159 161 168 179 192 206 222 244 265 278 284 287 288 288 290 292 294 297 299 301 304 306 307 307 307 307 306
141 140 139 138 136 134 131 130 128 129 129 129 129 128 127 128 127 127 126 125 124 124 123 122 122 122 124 126 129 131 134 136 138 139 141 143 146 147 149 149 150 152 157 166 175 181 192 210 229 251 268 279 284 288 291 291 291 291 293 294 296 299 301 304 305 305 305 306 306
140 140 140 138 136 134 132 130 129 129 130 130 129 129 128 128 128 127 127 127 125 124 124 124 124 125 127 128 131 133 135 138 140 142 142 143 145 146 145 143 142 146 155 172 187 197 205 222 236 251 264 273 280 285 289 291 291 292 293 294 295 296 298 299 301 302 302 303 304
140 140 139 137 135 132 131 129 129 129 130 130 129 128 128 128 128 127 127 126 126 125 126 125 126 127 130 132 134 136 137 139 140 139 139 140 141 140 139 136 135 140 154 184 214 231 240 244 249 257 265 271 277 283 286 289 290 292 293 294 294 295 295 295 297 298 300 301 303
139 139 138 135 133 130 129 128 128 128 129 128 128 127 127 127 127 126 125 125 125 126 127 127 127 129 131 133 134 135 135 135 135 134 134 135 136 135 133 131 132 138 158 205 239 252 259 261 264 269 273 278 281 284 287 289 290 292 293 293 293 293 293 293 294 296 297 299 301
138 137 135 132 130 128 127 127 127 127 127 126 126 125 126 126 126 125 124 125 125 126 127 127 128 130 131 133 133 132 131 130 132 133 133 134 133 131 128 126 130 139 175 232 251 258 263 267 272 276 281 284 286 288 290 291 291 292 293 293 292 292 292 292 292 293 294 296 299
134 132 130 128 126 126 125 125 125 125 124 124 124 124 124 124 123 123 123 124 125 126 126 127 128 130 132 133 132 131 129 129 132 133 133 132 129 125 121 120 128 149 214 255 264 270 273 277 281 283 285 287 288 290 292 293 294 295 294 294 294 294 293 292 291 291 292 294 297
128 126 124 123 123 123 123 123 123 123 123 123 123 123 123 122 121 121 122 123 124 125 125 126 128 130 131 132 131 130 129 130 132 132 130 129 125 122 121 126 147 226 269 282 286 288 288 287 286 286 286 286 288 290 292 293 295 296 296 296 296 295 294 292 290 290 292 294 296
123 121 120 120 121 121 122 122 122 122 122 122 122 121 121 120 120 121 122 123 123 123 124 123 125 126 128 129 130 131 131 132 132 130 128 126 126 129 138 163 201 265 298 313 313 310 305 299 296 294 291 291 291 291 292 293 294 295 297 298 297 297 296 293 292 292 293 295 297
121 120 119 119 121 121 122 122 122 122 122 121 121 121 120 120 121 122 122 122 122 122 121 120 121 122 124 126 129 131 133 134 134 133 131 130 131 139 157 196 228 304 334 342 331 320 316 314 312 310 308 305 302 299 297 295 295 296 297 298 299 298 297 296 295 295 295 297 298
121 120 120 121 123 123 123 123 122 122 121 121 121 121 121 122 122 122 122 121 120 120 119 119 120 121 123 124 127 129 130 131 131 131 132 133 132 144 178 223 298 358 2 343 323 314 312 315 316 317 316 314 310 306 302 297 295 295 296 298 298 298 297 296 296 296 297 298 300
122 122 122 124 124 124 123 123 122 121 121 121 121 122 122 122 122 122 122 121 120 120 120 121 122 123 125 126 127 127 125 121 120 122 125 126 128 141 197 315 2 14 2 334 320 315 314 314 315 314 313 312 310 307 303 299 297 297 296 296 295 295 295 296 297 299 300 300 302
123 124 124 125 124 124 123 122 121 121 121 122 122 122 123 123 123 122 122 122 122 121 122 122 124 125 126 128 128 126 122 117 115 114 115 115 112 91 352 356 9 9 353 332 321 318 318 317 316 315 314 312 309 307 303 300 298 297 295 293 291 291 293 296 299 301 302 303 304
125 126 126 125 124 123 122 122 122 122 123 123 123 123 123 123 123 123 123 123 124 124 124 123 125 128 129 128 125 122 119 119 121 123 125 134 114 28 356 357 3 3 347 330 322 320 319 319 318 318 316 315 310 304 299 296 295 294 293 292 292 293 296 298 301 303 304 305 305
127 126 126 125 124 123 123 123 123 123 123 123 123 123 123 124 125 125 126 127 127 127 127 127 130 131 130 126 123 121 121 123 126 132 143 149 113 23 4 357 357 355 343 329 322 321 320 320 320 319 318 316 311 304 299 296 295 295 295 295 296 298 300 301 302 303 304 304 305
127 126 126 125 124 124 124 124 123 123 123 123 124 125 125 126 127 127 128 128 128 128 127 130 131 129 126 125 126 127 128 128 135 142 140 107 41 18 6 354 351 347 338 328 323 322 321 321 321 320 318 316 310 303 298 295 295 295 295 295 297 299 300 301 301 302 303 304 305
127 127 126 125 124 123 123 123 123 123 124 125 127 127 127 127 127 127 127 126 125 124 124 126 124 123 122 125 127 129 131 135 139 133 109 51 20 3 352 346 344 341 335 329 325 323 323 322 321 320 318 316 310 304 297 295 295 295 295 296 298 299 300 299 300 302 303 304 305
127 126 125 124 123 122 122 123 124 125 126 127 127 127 126 124 124 123 122 122 123 124 126 127 125 125 126 129 130 131 131 132 124 106 75 31 6 348 337 333 338 341 338 330 326 324 324 323 321 319 318 316 309 303 297 294 294 294 295 296 296 297 297 298 299 301 303 304 305
126 125 123 122 122 122 123 124 125 126 127 126 125 124 122 121 120 120 121 122 124 127 128 128 128 129 131 133 132 130 128 121 110 95 67 19 346 333 327 326 341 348 342 331 326 325 324 322 321 319 318 316 308 301 296 294 294 294 295 296 296 296 296 296 298 300 302 304 304
125 123 122 121 122 123 124 125 126 126 125 124 123 123 122 122 122 122 122 122 122 121 121 120 120 120 121 122 122 122 121 114 107 98 73 3 333 327 325 326 346 351 342 328 325 324 323 322 321 320 318 315 308 301 296 296 295 295 295 296 296 296 296 297 298 299 301 302 303
125 124 123 123 124 125 126 126 127 126 126 125 124 124 124 124 124 123 121 119 117 115 114 113 114 116 117 116 118 119 117 111 105 90 48 346 330 326 324 325 337 342 337 327 324 324 323 322 321 320 319 314 307 301 299 298 297 297 297 298 298 298 299 300 300 300 301 303 305
126 125 125 125 126 127 127 128 128 128 127 127 126 126 125 123 122 120 120 121 121 122 124 127 130 133 133 133 134 126 114 100 90 67 24 347 330 325 323 321 328 335 334 328 325 323 322 322 322 321 319 314 308 304 302 301 300 299 300 300 301 302 304 304 303 303 304 306 309
127 127 127 127 128 129 130 131 131 130 129 127 126 125 124 121 119 120 123 128 130 132 135 138 137 134 131 127 121 112 96 79 52 25 5 351 333 325 321 318 324 331 333 329 325 324 323 322 323 322 321 316 311 308 306 304 303 302 302 303 303 304 306 305 305 307 310 312 311
127 128 128 129 130 131 132 133 132 130 128 126 124 123 122 120 120 123 130 138 138 138 136 135 129 123 118 117 115 111 103 84 38 4 350 345 334 324 319 316 321 326 330 329 325 323 322 322 323 324 323 317 314 311 308 306 305 304 305 305 305 305 306 307 311 314 314 311 303
128 128 129 130 131 132 133 132 130 128 126 124 123 121 120 119 120 125 132 138 134 131 128 124 119 118 120 129 128 122 116 105 71 5 340 336 334 324 316 313 317 321 324 326 323 322 322 323 324 325 324 319 316 312 309 307 306 306 306 306 305 306 309 313 317 316 309 300 292
128 129 130 130 131 131 131 129 126 124 123 123 122 121 120 120 122 126 130 129 123 119 116 115 116 121 127 136 127 119 115 115 108 60 336 327 322 311 306 307 312 316 319 322 321 322 322 323 325 326 325 320 318 314 310 308 307 307 307 308 308 310 314 320 319 310 300 294 292
127 128 129 129 128 128 126 124 122 120 119 119 120 120 121 123 127 131 132 127 121 116 114 114 118 122 124 125 115 107 105 109 107 93 350 310 302 295 295 304 310 314 318 322 323 323 323 323 325 326 327 324 320 316 312 309 308 308 310 311 313 316 318 320 312 303 297 298 300